Temperature
18 18 18 18 18 18 18 18 18 18 17 17 17 17 17 18 18 18 18 18 17 17 17 17 17 17 17 17 17 17 16 16 16 16 16 16 16 16 16 16 16 16 16
18 18 18 18 18 18 18 17 17 17 17 17 17 17 17 17 17 18 18 17 17 17 17 17 17 17 17 17 17 17 17 16 16 16 16 16 16 16 16 16 16 16 16
18 18 18 18 18 17 17 17 17 17 17 17 17 17 17 17 17 17 17 17 17 17 17 17 17 17 17 17 17 17 17 16 16 16 16 16 16 16 16 16 16 16 16
18 18 18 18 17 17 17 17 17 17 17 17 17 17 17 17 17 17 17 17 17 17 17 17 17 17 17 17 17 17 17 17 16 16 16 16 16 16 16 16 16 16 16
18 18 18 17 17 17 17 17 17 17 17 17 17 17 17 17 17 17 17 17 17 17 17 17 17 17 16 16 16 16 16 16 16 16 16 16 16 16 16 16 16 16 16
18 18 18 17 17 17 17 17 17 17 17 17 17 17 17 17 17 17 17 17 17 17 17 17 17 17 16 16 16 16 16 16 16 16 16 16 16 16 16 16 16 16 16
18 18 18 17 17 17 17 17 17 17 17 17 17 17 17 17 17 17 17 17 17 17 17 17 16 16 16 16 16 16 16 16 16 16 16 16 16 16 16 16 16 16 16
18 18 18 17 17 17 17 17 17 17 17 17 17 17 17 17 17 17 17 17 17 17 17 17 17 16 16 16 16 16 16 16 16 16 16 16 15 15 15 15 15 15 15
18 18 17 17 17 17 17 17 17 17 17 17 17 17 17 17 17 17 17 17 17 17 17 17 17 17 16 16 16 16 16 16 16 16 15 15 15 15 15 15 15 15 15
17 17 17 17 17 17 17 17 17 17 17 17 17 17 17 17 17 17 17 17 17 17 17 17 17 17 17 16 16 16 16 16 16 16 15 15 15 15 15 15 15 15 15
17 17 17 17 17 17 16 16 16 16 16 17 17 17 17 17 17 17 17 17 17 17 17 17 17 17 17 16 16 16 16 16 16 16 16 15 15 15 15 15 15 15 15
17 17 17 17 17 16 16 16 16 16 16 16 17 17 17 17 17 17 17 17 17 17 17 17 17 17 17 17 17 16 16 16 16 16 16 16 15 15 15 15 15 15 15
17 17 17 17 16 16 16 16 16 16 16 16 16 16 17 17 17 17 17 17 17 17 17 17 17 17 17 17 17 17 16 16 16 16 16 16 16 15 15 15 15 15 15
17 17 17 17 16 16 16 16 16 16 16 16 16 16 17 17 17 17 17 17 17 17 17 17 17 17 17 17 17 17 16 16 16 16 16 16 16 15 15 15 15 15 15
17 17 17 16 16 16 16 16 16 16 16 16 16 16 16 17 17 17 17 17 17 17 17 17 17 17 17 17 17 17 16 16 16 16 16 15 15 15 15 15 15 15 15
17 17 16 16 16 16 16 16 16 16 16 16 16 16 16 16 16 16 16 16 16 17 17 17 17 17 17 17 17 16 16 16 16 16 15 15 15 15 15 15 15 15 15
17 16 16 16 16 16 16 15 15 15 15 15 15 16 16 16 16 16 16 16 16 16 16 16 16 16 16 16 16 16 16 16 15 15 15 15 15 15 15 15 15 15 15
16 16 16 16 16 16 15 15 15 15 15 15 15 15 15 15 15 16 16 16 16 16 16 16 16 16 16 16 16 16 15 15 15 15 15 15 15 15 15 15 15 15 14
16 16 16 16 15 15 15 15 15 15 15 15 15 15 15 15 15 15 15 15 15 15 15 15 15 15 15 15 15 15 15 15 15 14 14 14 14 14 14 14 14 14 14
16 16 16 15 15 15 15 15 15 15 15 15 15 15 15 15 15 15 15 15 15 15 15 15 15 14 14 14 14 14 14 14 14 14 14 14 14 14 14 14 14 14 13
15 15 15 15 15 15 15 15 15 15 15 15 15 15 14 14 14 14 14 14 14 14 14 14 14 14 13 13 13 13 13 13 13 13 13 13 13 13 13 13 13 13 12
15 15 15 15 15 15 15 15 15 15 14 14 14 14 14 14 14 14 13 13 13 13 13 13 13 12 12 12 12 12 12 12 12 12 12 12 12 12 12 12 11 11 11
15 15 15 15 14 14 14 14 14 14 14 14 13 13 13 13 13 12 12 12 12 12 12 12 11 11 11 11 10 10 10 10 10 10 10 10 10 10 10 10 10 10 10
15 14 14 14 14 14 14 14 14 13 13 13 12 12 12 12 12 11 11 11 11 11 11 10 10 10 9 9 9 9 9 9 9 9 8 8 8 9 9 9 9 9 9
14 14 13 13 13 13 13 13 13 12 12 12 11 11 11 11 11 10 10 10 10 10 9 9 9 8 8 8 8 8 8 8 8 8 7 7 7 7 8 8 8 8 8
13 13 12 12 12 12 12 11 11 11 11 11 10 10 10 10 10 9 9 9 9 9 8 8 8 7 7 7 7 7 7 6 6 6 6 5 5 5 5 6 6 6 6
Wind_Speed
5 6 5 6 6 6 5 4 4 3 3 4 6 8 8 10 10 11 11 14 14 13 13 12 12 12 11 11 10 10 11 10 10 10 10 10 10 10 10 9 9 9 9
7 5 4 5 5 6 7 5 4 3 3 3 4 7 9 11 11 12 11 13 14 14 13 13 12 12 12 11 11 10 11 11 10 10 10 10 10 9 9 9 9 8 8
10 7 4 4 5 7 6 4 3 3 2 2 3 4 7 9 10 11 12 12 13 14 14 13 12 12 12 12 12 11 11 11 11 10 10 10 10 10 9 9 9 9 8
11 8 4 4 5 5 4 3 2 2 2 3 3 3 4 6 8 9 11 12 12 11 13 14 13 13 13 13 12 12 11 11 11 11 11 11 11 11 10 10 10 10 9
11 8 4 4 5 4 2 3 2 3 3 2 2 3 4 4 5 8 8 11 12 12 12 13 14 14 13 13 13 13 13 13 12 12 12 12 11 12 12 11 11 11 11
11 8 4 4 5 3 3 3 3 2 2 3 2 2 2 3 4 5 6 9 11 12 12 11 12 13 14 13 13 13 13 13 13 13 13 13 13 13 13 13 13 13 12
10 8 4 3 3 4 4 5 3 3 2 2 3 3 3 1 2 3 4 4 6 10 11 12 12 11 11 14 15 14 13 13 14 14 14 14 14 14 14 14 14 14 14
9 7 5 5 4 4 4 4 4 3 1 2 3 3 2 3 3 2 3 5 5 7 8 12 12 13 12 11 13 15 15 14 14 14 15 15 16 16 16 16 15 16 15
8 7 7 5 5 4 4 4 4 5 2 1 2 4 3 3 2 3 2 4 5 4 5 8 11 13 14 13 13 15 16 16 15 14 14 15 16 16 16 16 16 17 17
8 8 8 6 5 4 4 4 4 4 4 2 0 1 2 4 3 1 3 2 3 5 6 5 8 12 14 13 13 14 15 16 16 15 15 14 15 16 16 16 16 16 17
6 7 7 6 5 4 4 4 4 4 3 3 2 1 1 1 2 3 1 2 2 3 5 5 6 9 13 14 14 15 16 16 16 15 15 14 14 14 15 15 15 16 16
4 5 7 6 5 4 5 5 5 5 4 3 3 2 2 2 2 3 3 3 3 3 3 4 4 7 11 14 15 16 16 16 16 15 15 14 13 13 13 14 14 15 15
4 5 5 5 5 4 5 4 4 4 4 3 3 2 2 2 2 3 3 2 2 2 2 2 4 7 9 13 15 17 17 17 17 16 15 14 14 14 14 13 14 14 14
5 6 6 6 6 5 5 4 3 3 3 3 3 2 1 1 1 2 3 3 1 2 2 4 2 4 7 10 15 16 15 17 17 17 16 16 16 16 15 15 14 14 15
6 7 7 7 6 5 5 5 3 3 3 3 2 2 1 1 1 1 2 3 4 2 2 3 3 3 5 7 11 12 12 15 17 17 18 18 17 17 16 16 16 16 16
7 8 7 7 6 5 5 5 3 3 4 2 2 2 1 1 2 2 2 2 3 4 3 3 3 3 2 2 6 9 10 11 13 15 16 17 17 17 17 17 17 17 17
7 8 7 7 6 6 5 4 3 3 4 2 1 1 1 1 1 2 2 2 2 2 2 3 2 2 2 2 1 2 4 4 6 9 12 13 15 15 16 16 16 17 17
7 7 7 6 6 6 6 6 5 4 4 3 2 1 1 1 2 1 2 2 1 1 2 1 2 3 3 2 2 1 2 3 4 5 5 7 8 10 12 13 14 16 16
7 7 7 6 5 5 5 4 4 3 3 3 2 2 1 2 2 1 2 2 1 2 1 1 1 2 2 3 3 3 3 4 5 6 6 6 9 10 11 12 12 12 13
6 6 6 5 4 4 4 4 4 4 4 3 3 3 3 3 3 2 3 2 2 3 2 2 1 2 3 3 3 3 4 4 4 6 8 9 11 12 13 12 11 12 12
6 6 6 5 4 3 2 4 5 6 6 6 6 5 5 6 7 5 4 3 3 3 3 3 2 3 3 3 3 3 3 4 3 3 5 6 7 8 11 13 13 15 15
7 7 7 6 5 4 5 7 8 7 7 7 7 6 6 7 9 10 10 9 7 4 3 2 2 2 2 2 2 2 3 3 4 3 4 5 4 5 8 10 14 16 15
8 8 8 8 8 8 10 11 12 9 8 7 6 6 6 7 8 6 9 11 10 10 6 3 2 1 1 2 2 2 2 2 3 4 3 4 4 4 7 11 14 15 15
9 9 9 9 9 10 12 13 14 11 10 9 8 7 7 7 7 6 7 7 7 7 6 5 2 2 2 2 1 1 2 3 4 4 2 3 4 4 7 11 12 14 16
11 10 9 9 10 10 12 13 12 10 10 9 8 8 8 7 9 9 7 7 6 6 9 11 10 9 10 11 7 3 3 3 3 3 3 2 4 5 5 5 9 14 18
12 12 11 9 10 10 12 13 12 8 8 7 6 7 9 8 9 9 7 6 6 5 6 7 9 11 11 11 11 6 2 2 2 3 3 3 3 4 5 4 4 11 14
Wind_Direction
163 168 177 183 192 194 188 191 193 199 190 160 154 153 155 158 164 164 173 176 175 173 171 170 170 169 167 166 166 167 167 164 162 160 160 160 160 160 160 159 158 157 157
164 163 168 180 191 191 186 184 180 172 162 148 142 150 160 164 172 173 177 181 183 182 180 179 178 177 176 176 176 174 174 174 172 173 173 173 172 171 171 170 169 168 167
163 161 158 171 183 179 171 159 152 139 135 127 128 145 157 171 175 180 182 184 189 191 189 188 189 189 187 187 186 185 184 183 183 185 186 185 184 184 184 182 182 182 182
159 153 152 171 176 165 154 138 129 114 116 124 139 157 156 170 177 187 188 190 192 196 199 198 198 198 198 197 196 195 194 193 193 195 196 196 197 197 198 195 194 195 197
153 148 152 167 162 141 135 148 126 136 141 142 158 160 165 168 175 189 195 197 200 203 204 207 207 206 207 207 205 204 203 203 202 205 206 207 208 208 208 207 207 207 208
150 145 148 154 143 130 132 129 128 123 140 154 139 127 180 188 176 185 197 199 205 208 208 210 212 214 216 216 215 213 212 211 209 211 214 215 217 218 216 216 217 217 219
152 145 140 138 136 145 153 147 128 117 97 112 85 42 359 321 202 201 197 193 205 210 208 211 214 215 220 225 224 222 221 219 217 218 219 221 222 224 224 223 223 225 226
156 155 145 148 148 142 139 136 125 121 90 115 123 99 22 342 326 224 196 200 205 204 207 212 213 214 219 224 228 230 229 228 226 225 226 226 227 229 229 229 230 230 232
158 153 151 144 147 149 153 153 140 135 135 76 134 142 150 219 285 318 240 212 201 200 210 212 212 217 220 224 228 232 233 232 232 233 232 230 231 233 234 234 235 235 236
157 153 150 146 149 149 154 159 145 140 136 129 74 148 172 161 157 280 316 271 222 216 213 214 213 216 218 218 224 229 231 232 233 235 236 235 235 237 239 240 241 242 242
158 154 149 142 145 147 152 145 132 128 133 143 146 139 114 114 130 145 240 294 289 248 224 219 216 215 215 216 221 226 228 228 231 235 237 238 239 240 241 244 246 247 247
160 161 149 142 143 144 150 145 137 133 131 130 132 132 146 160 189 163 189 233 249 267 243 228 218 217 216 215 220 224 224 225 228 232 234 237 242 244 247 248 249 251 252
167 174 156 151 147 151 153 143 132 136 142 138 146 148 150 182 185 161 153 192 246 291 301 269 233 224 221 216 221 223 224 226 226 228 232 236 241 245 247 249 250 254 256
175 170 160 158 156 155 153 140 133 149 151 151 146 140 141 144 136 153 157 147 96 333 320 288 285 236 229 218 222 222 223 225 224 228 233 238 242 244 246 249 251 254 256
171 165 159 155 155 155 152 144 145 158 152 158 152 139 150 137 96 114 134 146 147 168 280 288 296 285 247 227 222 215 221 225 227 233 238 243 247 249 251 253 254 256 258
161 157 159 158 157 158 154 148 147 156 151 164 161 139 131 120 75 71 87 106 139 159 214 269 271 299 305 236 225 216 225 233 236 241 247 251 253 255 257 258 259 260 261
156 160 163 163 164 164 158 155 166 158 165 175 171 156 194 153 97 69 76 84 95 137 188 281 293 326 14 5 17 239 253 262 267 264 260 264 266 268 269 269 268 268 267
157 162 159 163 170 171 169 171 186 180 178 186 197 170 209 136 93 70 78 74 72 121 157 256 321 348 359 350 1 3 3 346 319 314 300 295 296 295 292 288 283 278 275
151 151 149 156 162 164 169 175 180 182 176 175 175 160 163 123 104 81 77 69 49 53 87 122 345 358 3 12 14 4 10 3 350 345 355 358 345 334 322 313 307 301 294
141 136 130 129 131 132 146 159 148 139 128 111 98 96 89 104 111 100 79 59 62 56 52 68 36 13 10 2 31 8 351 345 339 359 3 358 352 347 341 337 331 323 314
126 117 110 102 96 98 119 136 132 125 116 101 85 76 74 82 81 80 82 70 70 65 54 55 41 27 13 14 5 349 341 326 323 357 348 343 344 345 341 340 336 330 326
106 103 101 97 82 73 87 105 112 108 106 103 94 78 68 63 70 68 69 66 69 74 69 60 44 38 349 333 335 349 349 354 324 333 352 324 344 334 335 336 337 339 341
107 99 93 88 79 65 78 92 99 102 98 94 92 85 76 60 54 59 59 56 51 51 61 92 71 334 298 284 315 330 331 308 282 299 339 306 322 322 330 335 337 343 348
107 101 94 88 82 70 76 88 95 92 88 82 81 83 80 59 53 62 67 58 46 37 39 47 43 331 331 310 269 263 285 305 297 302 348 303 315 312 319 317 325 342 349
104 97 92 87 84 73 72 82 93 94 90 80 76 76 78 70 56 63 68 60 43 23 31 36 40 36 32 32 37 41 17 13 332 312 350 331 305 311 303 300 325 346 345
107 101 89 82 83 77 74 81 87 97 95 87 74 66 66 67 58 60 67 63 48 13 12 23 29 28 33 34 36 42 35 16 327 311 328 336 310 330 316 301 319 329 327
Height
1550 1552 1554 1556 1557 1559 1560 1562 1563 1564 1565 1566 1567 1567 1568 1568 1569 1570 1570 1571 1572 1573 1574 1574 1575 1575 1576 1577 1577 1578 1579 1580 1581 1581 1582 1583 1583 1584 1585 1585 1586 1586 1586
1550 1552 1554 1556 1557 1559 1560 1561 1563 1564 1565 1566 1567 1567 1568 1569 1570 1570 1571 1571 1572 1573 1574 1575 1575 1576 1576 1577 1578 1578 1579 1580 1581 1581 1582 1583 1583 1584 1585 1585 1586 1586 1587
1550 1552 1553 1555 1557 1558 1560 1561 1563 1564 1565 1566 1567 1568 1568 1569 1570 1571 1571 1572 1572 1573 1574 1575 1575 1576 1576 1577 1577 1578 1579 1580 1580 1581 1582 1583 1583 1584 1584 1585 1586 1586 1586
1549 1551 1553 1555 1556 1558 1559 1560 1562 1563 1565 1566 1567 1568 1568 1569 1569 1570 1571 1572 1572 1573 1574 1574 1575 1576 1576 1577 1577 1578 1579 1579 1580 1581 1581 1582 1583 1583 1584 1585 1585 1586 1586
1548 1550 1552 1554 1555 1557 1558 1559 1561 1562 1564 1565 1566 1567 1568 1568 1569 1570 1571 1571 1572 1573 1573 1574 1574 1575 1575 1576 1576 1577 1578 1578 1579 1580 1581 1581 1582 1583 1583 1584 1584 1585 1585
1547 1549 1551 1553 1554 1556 1557 1558 1560 1561 1563 1564 1566 1566 1567 1568 1568 1569 1570 1570 1571 1572 1572 1573 1573 1574 1575 1575 1576 1576 1577 1577 1578 1579 1579 1580 1581 1581 1582 1583 1583 1584 1584
1545 1547 1549 1551 1553 1554 1556 1557 1559 1560 1562 1563 1565 1566 1566 1567 1567 1568 1569 1569 1570 1571 1571 1572 1573 1573 1574 1574 1574 1575 1576 1576 1577 1577 1578 1579 1579 1580 1580 1581 1581 1582 1582
1544 1546 1548 1549 1551 1553 1554 1556 1557 1559 1561 1562 1564 1565 1565 1567 1566 1567 1567 1568 1569 1570 1570 1571 1571 1572 1572 1573 1573 1574 1574 1574 1575 1576 1576 1577 1577 1578 1578 1578 1579 1580 1580
1542 1544 1546 1548 1550 1551 1553 1555 1556 1557 1559 1561 1562 1564 1564 1564 1565 1566 1566 1567 1568 1568 1569 1569 1570 1570 1571 1572 1572 1572 1573 1573 1573 1574 1574 1574 1575 1575 1576 1576 1576 1577 1577
1540 1542 1545 1546 1548 1550 1552 1553 1554 1556 1558 1559 1561 1562 1563 1563 1564 1564 1565 1565 1566 1567 1568 1568 1569 1569 1570 1570 1571 1571 1571 1571 1571 1571 1572 1572 1572 1572 1573 1573 1573 1574 1574
1538 1541 1543 1545 1547 1548 1550 1551 1553 1555 1556 1558 1559 1561 1562 1562 1563 1563 1563 1564 1565 1565 1566 1567 1567 1568 1568 1568 1569 1569 1569 1570 1570 1569 1569 1569 1569 1570 1570 1570 1570 1570 1570
1536 1539 1541 1543 1545 1547 1548 1550 1552 1553 1555 1557 1558 1559 1560 1561 1561 1562 1562 1563 1563 1564 1565 1565 1565 1566 1566 1567 1567 1567 1568 1568 1568 1568 1567 1567 1567 1567 1567 1567 1567 1567 1567
1534 1536 1539 1541 1543 1545 1547 1548 1550 1552 1553 1555 1557 1558 1559 1560 1560 1561 1561 1561 1562 1563 1563 1563 1564 1564 1565 1565 1565 1566 1566 1566 1566 1566 1565 1565 1565 1565 1565 1564 1564 1564 1563
1532 1535 1537 1539 1541 1543 1545 1547 1549 1550 1552 1553 1555 1557 1558 1559 1559 1560 1560 1560 1561 1561 1561 1562 1562 1562 1562 1563 1563 1564 1564 1564 1564 1564 1563 1563 1563 1562 1562 1562 1561 1561 1560
1530 1533 1536 1538 1540 1542 1544 1545 1547 1549 1550 1552 1553 1555 1556 1557 1558 1558 1559 1559 1560 1559 1559 1560 1560 1560 1560 1560 1561 1561 1562 1562 1562 1561 1561 1561 1560 1560 1559 1559 1558 1557 1557
1528 1531 1534 1536 1538 1540 1542 1544 1546 1547 1549 1550 1552 1553 1554 1555 1556 1556 1557 1557 1558 1558 1558 1558 1558 1557 1557 1558 1558 1559 1559 1559 1559 1558 1558 1557 1557 1556 1556 1555 1554 1553 1553
1527 1530 1532 1535 1537 1539 1541 1542 1544 1546 1547 1549 1550 1551 1552 1553 1554 1554 1555 1555 1555 1556 1556 1556 1556 1556 1555 1555 1555 1556 1556 1556 1555 1555 1554 1553 1553 1552 1551 1550 1550 1549 1548
1525 1528 1531 1533 1535 1537 1539 1541 1542 1544 1546 1547 1548 1549 1550 1551 1552 1552 1553 1553 1553 1553 1553 1553 1553 1553 1553 1553 1553 1553 1552 1552 1551 1551 1550 1549 1548 1547 1546 1545 1544 1543 1543
1524 1527 1529 1531 1533 1535 1537 1539 1540 1542 1543 1545 1546 1547 1548 1549 1549 1550 1550 1550 1550 1550 1550 1550 1550 1550 1549 1549 1549 1549 1548 1548 1547 1546 1545 1544 1543 1542 1541 1540 1539 1537 1536
1523 1525 1527 1530 1532 1534 1535 1537 1538 1540 1541 1543 1544 1545 1546 1546 1547 1547 1547 1547 1547 1547 1547 1547 1547 1546 1546 1545 1545 1544 1544 1543 1542 1541 1540 1539 1538 1537 1535 1534 1533 1531 1530
1522 1524 1526 1528 1530 1531 1533 1535 1536 1538 1539 1541 1542 1543 1543 1544 1544 1544 1544 1544 1544 1544 1544 1543 1543 1542 1542 1541 1540 1539 1538 1537 1537 1535 1534 1533 1532 1531 1529 1528 1526 1525 1523
1520 1522 1524 1526 1528 1530 1531 1533 1535 1536 1537 1538 1539 1540 1541 1541 1541 1541 1541 1541 1541 1541 1540 1540 1539 1538 1538 1537 1536 1535 1534 1532 1531 1530 1528 1527 1526 1524 1523 1521 1520 1518 1516
1519 1521 1523 1525 1527 1528 1530 1531 1533 1534 1535 1536 1537 1538 1538 1539 1539 1539 1538 1538 1538 1537 1537 1537 1536 1535 1534 1533 1532 1531 1530 1528 1527 1525 1523 1521 1520 1518 1517 1515 1514 1512 1510
1518 1520 1522 1524 1526 1527 1529 1530 1531 1532 1533 1534 1536 1536 1537 1537 1537 1537 1536 1536 1535 1535 1534 1533 1533 1531 1531 1529 1528 1527 1526 1524 1523 1522 1519 1517 1514 1512 1511 1510 1508 1506 1504
1517 1519 1521 1523 1525 1526 1528 1529 1530 1531 1532 1533 1534 1535 1535 1535 1535 1535 1535 1534 1533 1533 1532 1531 1530 1529 1528 1526 1525 1524 1522 1520 1518 1517 1515 1513 1509 1506 1504 1503 1502 1500 1497
1515 1517 1520 1522 1524 1525 1527 1529 1530 1530 1531 1532 1533 1534 1534 1534 1534 1533 1533 1532 1531 1531 1530 1529 1528 1527 1525 1524 1522 1521 1519 1517 1515 1513 1511 1509 1505 1502 1498 1496 1495 1493 1490